Terminal Aerodrome Forecast
Issued by NWS Twin Cities, MN

Home | Current Version | Previous Version | Graphics & Text | Print | Product List | Glossary On
Versions: 1 2 3 4 5 6 7 8 9 10 11 12 13 14 15 16 17 18 19 20 21 22 23 24 25 26 27 28 29
241
FTUS43 KMPX 291708 AAB
TAFMSP
TAF AMD
KMSP 291708Z 2917/3018 02005KT P6SM FEW100
     FM300100 04003KT P6SM SCT250
     FM301700 11004KT P6SM SCT150=

USA.gov is the U.S. government's official web portal to all federal, state and local government web resources and services.